Terug naar catalogus

STARLINK-37166

ActiefCommunicatieVLEO
NORAD 69195·PAYLOAD·🇺🇸 United States

Gelanceerd May 25, 2026 vanaf Cape Canaveral Space Force Station

Loading…

Volgende Passages (komende 24 uur)

TLE

VersSource: CelesTrak SupGP

Epoch: Sep 14, 2026, 21:33 UTC

1 69195C 26114P   26257.89840278 -.00180430  00000+0 -53282-2 0  2578
2 69195  53.1570 139.9228 0001255  87.5492 356.6062 15.34496817    12

Volg STARLINK-37166 in realtime met AllMySat

Download on the App Store